Location: Chuathbaluk
(61.5726°N, 159.2454°W)
Time: 15:54:54
(UTC+00:00)

S-56A Canister/Altair - Pass Details

Date: 03 December 2020
Orbit: 633 x 2499 km, 38.9° (Epoch: 15 January)

Event Time Altitude Azimuth Distance (km) Brightness Sun altitude
Rises 05:26:21 0° 220° (SW) 5,735 12.5 -26.4°
Reaches altitude 10° 05:32:19 10° 202° (SSW) 4,388 11.6 -27.1°
Maximum altitude 05:38:18 16° 171° (S) 3,499 10.7 -27.8°
Enters shadow 05:40:20 15° 157° (SSE) 3,415 10.5 -28.1°
Drops below altitude 10° 05:43:20 10° 138° (SE) 3,554 - -28.4°
Sets 05:47:20 0° 117° (ESE) 4,181 - -28.9°
